datetime,release volume
2003-10-01,9.7
2003-10-02,5.8
2003-10-03,4.1
2003-10-04,4.2
2003-10-05,4.2
2003-10-06,4.0
2003-10-07,3.9
2003-10-08,3.9
2003-10-09,3.9
2003-10-10,3.9
2003-10-11,3.8
2003-10-12,3.7
2003-10-13,3.4
2003-10-14,3.7
2003-10-15,1.9
2003-10-16,0.0
2003-10-17,0.0
2003-10-18,0.0
2003-10-19,0.0
2003-10-20,0.0
2003-10-21,0.0
2003-10-22,0.0
2003-10-23,0.0
2003-10-24,0.0
2003-10-25,0.0
2003-10-26,0.0
2003-10-27,0.0
2003-10-28,0.0
2003-10-29,0.0
2003-10-30,0.0
2003-10-31,0.0
2003-11-01,0.0
2003-11-02,0.0
2003-11-03,0.0
2003-11-04,0.0
2003-11-05,0.0
2003-11-06,0.0
2003-11-07,0.0
2003-11-08,0.0
2003-11-09,0.0
2003-11-10,0.0
2003-11-11,0.0
2003-11-12,0.0
2003-11-13,0.0
2003-11-14,0.0
2003-11-15,0.0
2003-11-16,0.0
2003-11-17,0.0
2003-11-18,0.0
2003-11-19,0.0
2003-11-20,0.0
2003-11-21,0.0
2003-11-22,0.0
2003-11-23,0.0
2003-11-24,0.0
2003-11-25,0.0
2003-11-26,0.0
2003-11-27,0.0
2003-11-28,0.0
2003-11-29,0.0
2003-11-30,0.0
2003-12-01,0.0
2003-12-02,0.0
2003-12-03,0.0
2003-12-04,0.0
2003-12-05,0.0
2003-12-06,0.0
2003-12-07,0.0
2003-12-08,0.0
2003-12-09,0.0
2003-12-10,0.0
2003-12-11,0.0
2003-12-12,0.0
2003-12-13,0.0
2003-12-14,0.0
2003-12-15,0.0
2003-12-16,0.0
2003-12-17,0.0
2003-12-18,0.0
2003-12-19,0.0
2003-12-20,0.0
2003-12-21,0.0
2003-12-22,0.0
2003-12-23,0.0
2003-12-24,0.0
2003-12-25,0.0
2003-12-26,0.0
2003-12-27,0.0
2003-12-28,0.0
2003-12-29,0.0
2003-12-30,0.0
2003-12-31,0.0
2004-01-01,0.0
2004-01-02,0.0
2004-01-03,0.0
2004-01-04,0.0
2004-01-05,0.0
2004-01-06,0.0
2004-01-07,0.0
2004-01-08,0.0
2004-01-09,0.0
2004-01-10,0.0
2004-01-11,0.0
2004-01-12,0.0
2004-01-13,0.0
2004-01-14,0.0
2004-01-15,0.0
2004-01-16,0.0
2004-01-17,0.0
2004-01-18,0.0
2004-01-19,0.0
2004-01-20,0.0
2004-01-21,0.0
2004-01-22,0.0
2004-01-23,0.0
2004-01-24,0.0
2004-01-25,0.0
2004-01-26,0.0
2004-01-27,0.0
2004-01-28,0.0
2004-01-29,0.0
2004-01-30,0.0
2004-01-31,0.0
2004-02-01,0.0
2004-02-02,0.0
2004-02-03,0.0
2004-02-04,0.0
2004-02-05,0.0
2004-02-06,0.0
2004-02-07,0.0
2004-02-08,0.0
2004-02-09,0.0
2004-02-10,0.0
2004-02-11,0.0
2004-02-12,0.0
2004-02-13,0.0
2004-02-14,0.0
2004-02-15,0.0
2004-02-16,0.0
2004-02-17,0.0
2004-02-18,0.0
2004-02-19,0.0
2004-02-20,0.0
2004-02-21,0.0
2004-02-22,0.0
2004-02-23,0.0
2004-02-24,0.0
2004-02-25,0.0
2004-02-26,0.0
2004-02-27,0.0
2004-02-28,0.0
2004-02-29,0.0
2004-03-01,0.0
2004-03-02,0.0
2004-03-03,0.0
2004-03-04,0.0
2004-03-05,0.0
2004-03-06,0.0
2004-03-07,0.0
2004-03-08,0.0
2004-03-09,0.0
2004-03-10,0.0
2004-03-11,0.0
2004-03-12,0.0
2004-03-13,0.0
2004-03-14,0.0
2004-03-15,0.0
2004-03-16,0.0
2004-03-17,0.0
2004-03-18,0.0
2004-03-19,0.0
2004-03-20,0.0
2004-03-21,0.0
2004-03-22,0.0
2004-03-23,0.0
2004-03-24,0.0
2004-03-25,0.0
2004-03-26,0.0
2004-03-27,0.0
2004-03-28,0.0
2004-03-29,0.0
2004-03-30,0.0
2004-03-31,0.0
2004-04-01,0.0
2004-04-02,0.0
2004-04-03,0.0
2004-04-04,0.0
2004-04-05,0.0
2004-04-06,0.0
2004-04-07,0.0
2004-04-08,0.0
2004-04-09,0.0
2004-04-10,0.0
2004-04-11,0.0
2004-04-12,0.0
2004-04-13,0.0
2004-04-14,0.0
2004-04-15,0.0
2004-04-16,0.0
2004-04-17,0.0
2004-04-18,0.0
2004-04-19,0.0
2004-04-20,0.0
2004-04-21,0.0
2004-04-22,0.0
2004-04-23,0.0
2004-04-24,0.0
2004-04-25,0.0
2004-04-26,0.0
2004-04-27,0.0
2004-04-28,0.0
2004-04-29,0.0
2004-04-30,0.0
2004-05-01,0.0
2004-05-02,0.0
2004-05-03,0.0
2004-05-04,0.0
2004-05-05,0.0
2004-05-06,0.0
2004-05-07,11.58
2004-05-08,19.23
2004-05-09,20.91
2004-05-10,50.07
2004-05-11,66.11
2004-05-12,69.72
2004-05-13,42.41
2004-05-14,36.95
2004-05-15,37.07
2004-05-16,37.56
2004-05-17,30.73
2004-05-18,29.34
2004-05-19,40.53
2004-05-20,40.45
2004-05-21,40.29
2004-05-22,40.02
2004-05-23,39.88
2004-05-24,38.12
2004-05-25,27.17
2004-05-26,26.99
2004-05-27,26.79
2004-05-28,26.91
2004-05-29,26.95
2004-05-30,26.37
2004-05-31,26.31
2004-06-01,26.53
2004-06-02,26.69
2004-06-03,37.34
2004-06-04,40.87
2004-06-05,47.44
2004-06-06,47.08
2004-06-07,37.26
2004-06-08,37.13
2004-06-09,30.53
2004-06-10,28.29
2004-06-11,28.2
2004-06-12,26.35
2004-06-13,19.11
2004-06-14,18.49
2004-06-15,18.32
2004-06-16,15.09
2004-06-17,14.18
2004-06-18,14.18
2004-06-19,13.94
2004-06-20,10.63
2004-06-21,10.53
2004-06-22,7.03
2004-06-23,5.98
2004-06-24,3.52
2004-06-25,3.35
2004-06-26,1.98
2004-06-27,1.96
2004-06-28,1.94
2004-06-29,4.79
2004-06-30,10.34
2004-07-01,2.93
2004-07-02,1.54
2004-07-03,2.1
2004-07-04,2.08
2004-07-05,2.06
2004-07-06,2.06
2004-07-07,2.1
2004-07-08,2.1
2004-07-09,4.08
2004-07-10,29.38
2004-07-11,30.63
2004-07-12,30.41
2004-07-13,30.23
2004-07-14,30.1
2004-07-15,29.94
2004-07-16,25.26
2004-07-17,22.93
2004-07-18,22.67
2004-07-19,18.79
2004-07-20,18.69
2004-07-21,18.63
2004-07-22,22.12
2004-07-23,24.97
2004-07-24,24.43
2004-07-25,24.59
2004-07-26,24.49
2004-07-27,21.78
2004-07-28,20.59
2004-07-29,20.55
2004-07-30,20.45
2004-07-31,20.39
2004-08-01,20.35
2004-08-02,20.35
2004-08-03,20.31
2004-08-04,20.26
2004-08-05,19.98
2004-08-06,20.1
2004-08-07,20.04
2004-08-08,19.9
2004-08-09,19.72
2004-08-10,21.23
2004-08-11,21.82
2004-08-12,26.67
2004-08-13,30.35
2004-08-14,30.06
2004-08-15,29.76
2004-08-16,29.4
2004-08-17,24.97
2004-08-18,23.19
2004-08-19,14.61
2004-08-20,7.27
2004-08-21,7.35
2004-08-22,7.48
2004-08-23,6.57
2004-08-24,5.78
2004-08-25,3.33
2004-08-26,2.16
2004-08-27,2.24
2004-08-28,2.18
2004-08-29,2.18
2004-08-30,2.18
2004-08-31,2.14
2004-09-01,2.18
2004-09-02,2.16
2004-09-03,2.16
2004-09-04,2.36
2004-09-05,2.2800000000000002
2004-09-06,2.3
2004-09-07,2.32
2004-09-08,2.32
2004-09-09,2.2800000000000002
2004-09-10,2.26
2004-09-11,2.34
2004-09-12,2.26
2004-09-13,2.26
2004-09-14,2.04
2004-09-15,2.1
2004-09-16,2.04
2004-09-17,1.8599999999999999
2004-09-18,1.78
2004-09-19,1.7000000000000002
2004-09-20,1.78
2004-09-21,1.72
2004-09-22,1.72
2004-09-23,1.6800000000000002
2004-09-24,1.6800000000000002
2004-09-25,1.6
2004-09-26,1.56
2004-09-27,1.54
2004-09-28,1.5
2004-09-29,1.54
2004-09-30,1.54
2004-10-01,1.47
2004-10-02,1.21
2004-10-03,1.19
2004-10-04,1.21
2004-10-05,1.19
2004-10-06,1.15
2004-10-07,0.6900000000000001
2004-10-08,0.0
2004-10-09,0.0
2004-10-10,0.0
2004-10-11,0.0
2004-10-12,0.0
2004-10-13,0.0
2004-10-14,0.0
2004-10-15,0.0
2004-10-16,0.0
2004-10-17,0.0
2004-10-18,0.0
2004-10-19,0.0
2004-10-20,0.0
2004-10-21,0.0
2004-10-22,0.0
2004-10-23,0.0
2004-10-24,0.0
2004-10-25,0.0
2004-10-26,0.0
2004-10-27,0.0
2004-10-28,0.0
2004-10-29,0.0
2004-10-30,0.0
2004-10-31,0.0
2004-11-01,0.0
2004-11-02,0.0
2004-11-03,0.0
2004-11-04,0.0
2004-11-05,0.0
2004-11-06,0.0
2004-11-07,0.0
2004-11-08,0.0
2004-11-09,0.0
2004-11-10,0.0
2004-11-11,0.0
2004-11-12,0.0
2004-11-13,0.0
2004-11-14,0.0
2004-11-15,0.0
2004-11-16,0.0
2004-11-17,0.0
2004-11-18,0.0
2004-11-19,0.0
2004-11-20,0.0
2004-11-21,0.0
2004-11-22,0.0
2004-11-23,0.0
2004-11-24,0.0
2004-11-25,0.0
2004-11-26,0.0
2004-11-27,0.0
2004-11-28,0.0
2004-11-29,0.0
2004-11-30,0.0
2004-12-01,0.0
2004-12-02,0.0
2004-12-03,0.0
2004-12-04,0.0
2004-12-05,0.0
2004-12-06,0.0
2004-12-07,0.0
2004-12-08,0.0
2004-12-09,0.0
2004-12-10,0.0
2004-12-11,0.0
2004-12-12,0.0
2004-12-13,0.0
2004-12-14,0.0
2004-12-15,0.0
2004-12-16,0.0
2004-12-17,0.0
2004-12-18,0.0
2004-12-19,0.0
2004-12-20,0.0
2004-12-21,0.0
2004-12-22,0.0
2004-12-23,0.0
2004-12-24,0.0
2004-12-25,0.0
2004-12-26,0.0
2004-12-27,0.0
2004-12-28,0.0
2004-12-29,0.0
2004-12-30,0.0
2004-12-31,0.0
2005-01-01,0.0
2005-01-02,0.0
2005-01-03,0.0
2005-01-04,0.0
2005-01-05,0.0
2005-01-06,0.0
2005-01-07,0.0
2005-01-08,0.0
2005-01-09,0.0
2005-01-10,0.0
2005-01-11,0.0
2005-01-12,0.0
2005-01-13,0.0
2005-01-14,0.0
2005-01-15,0.0
2005-01-16,0.0
2005-01-17,0.0
2005-01-18,0.0
2005-01-19,0.0
2005-01-20,0.0
2005-01-21,0.0
2005-01-22,0.0
2005-01-23,0.0
2005-01-24,0.0
2005-01-25,0.0
2005-01-26,0.0
2005-01-27,0.0
2005-01-28,0.0
2005-01-29,0.0
2005-01-30,0.0
2005-01-31,0.0
2005-02-01,0.0
2005-02-02,0.0
2005-02-03,0.0
2005-02-04,0.0
2005-02-05,0.0
2005-02-06,0.0
2005-02-07,0.0
2005-02-08,0.0
2005-02-09,0.0
2005-02-10,0.0
2005-02-11,0.0
2005-02-12,0.0
2005-02-13,0.0
2005-02-14,0.0
2005-02-15,0.0
2005-02-16,0.0
2005-02-17,9.9
2005-02-18,9.9
2005-02-19,9.9
2005-02-20,9.9
2005-02-21,17.82
2005-02-22,17.82
2005-02-23,17.82
2005-02-24,21.78
2005-02-25,23.76
2005-02-26,29.7
2005-02-27,29.7
2005-02-28,29.7
2005-03-01,29.8
2005-03-02,30.46
2005-03-03,32.91
2005-03-04,33.78
2005-03-05,30.4
2005-03-06,28.18
2005-03-07,29.21
2005-03-08,30.16
2005-03-09,26.24
2005-03-10,21.08
2005-03-11,22.82
2005-03-12,26.04
2005-03-13,27.82
2005-03-14,27.35
2005-03-15,27.32
2005-03-16,27.1
2005-03-17,26.04
2005-03-18,26.37
2005-03-19,26.55
2005-03-20,24.15
2005-03-21,22.7
2005-03-22,22.71
2005-03-23,19.68
2005-03-24,19.81
2005-03-25,20.76
2005-03-26,21.39
2005-03-27,22.2
2005-03-28,19.06
2005-03-29,16.18
2005-03-30,16.82
2005-03-31,19.5
2005-04-01,19.86
2005-04-02,20.33
2005-04-03,19.58
2005-04-04,16.58
2005-04-05,17.08
2005-04-06,17.91
2005-04-07,17.21
2005-04-08,15.67
2005-04-09,15.05
2005-04-10,16.99
2005-04-11,16.93
2005-04-12,18.03
2005-04-13,17.38
2005-04-14,17.49
2005-04-15,17.17
2005-04-16,12.63
2005-04-17,11.27
2005-04-18,8.81
2005-04-19,7.11
2005-04-20,0.0
2005-04-21,0.0
2005-04-22,0.0
2005-04-23,0.0
2005-04-24,0.0
2005-04-25,0.0
2005-04-26,0.0
2005-04-27,0.0
2005-04-28,0.0
2005-04-29,0.0
2005-04-30,0.0
2005-05-01,0.0
2005-05-02,0.0
2005-05-03,0.0
2005-05-04,0.0
2005-05-05,0.0
2005-05-06,0.0
2005-05-07,0.0
2005-05-08,0.0
2005-05-09,0.0
2005-05-10,0.0
2005-05-11,0.0
2005-05-12,0.0
2005-05-13,0.0
2005-05-14,0.0
2005-05-15,0.0
2005-05-16,0.0
2005-05-17,0.0
2005-05-18,0.0
2005-05-19,0.0
2005-05-20,0.0
2005-05-21,0.0
2005-05-22,0.0
2005-05-23,0.0
2005-05-24,0.0
2005-05-25,57.0
2005-05-26,87.73
2005-05-27,107.2
2005-05-28,122.07
2005-05-29,121.39
2005-05-30,121.2
2005-05-31,121.26
2005-06-01,120.62
2005-06-02,114.88
2005-06-03,101.4
2005-06-04,95.46
2005-06-05,69.91
2005-06-06,69.12
2005-06-07,72.13
2005-06-08,69.14
2005-06-09,70.57
2005-06-10,68.69
2005-06-11,68.05
2005-06-12,65.66
2005-06-13,67.46
2005-06-14,58.94
2005-06-15,55.97
2005-06-16,56.77
2005-06-17,57.95
2005-06-18,59.08
2005-06-19,74.59
2005-06-20,81.38
2005-06-21,89.58
2005-06-22,93.36
2005-06-23,93.14
2005-06-24,92.47
2005-06-25,92.45
2005-06-26,92.23
2005-06-27,91.38
2005-06-28,91.42
2005-06-29,89.0
2005-06-30,73.56
2005-07-01,68.98
2005-07-02,67.48
2005-07-03,56.45
2005-07-04,55.12
2005-07-05,46.65
2005-07-06,43.14
2005-07-07,41.82
2005-07-08,23.52
2005-07-09,15.6
2005-07-10,15.42
2005-07-11,15.27
2005-07-12,14.85
2005-07-13,12.83
2005-07-14,10.45
2005-07-15,7.07
2005-07-16,6.99
2005-07-17,7.05
2005-07-18,4.59
2005-07-19,3.62
2005-07-20,3.58
2005-07-21,3.58
2005-07-22,3.6
2005-07-23,3.69
2005-07-24,3.64
2005-07-25,3.64
2005-07-26,3.62
2005-07-27,3.6
2005-07-28,3.56
2005-07-29,3.49
2005-07-30,3.5
2005-07-31,3.5
2005-08-01,3.54
2005-08-02,3.56
2005-08-03,3.5
2005-08-04,6.36
2005-08-05,22.23
2005-08-06,22.07
2005-08-07,21.94
2005-08-08,21.97
2005-08-09,21.97
2005-08-10,21.84
2005-08-11,21.73
2005-08-12,21.59
2005-08-13,21.57
2005-08-14,21.48
2005-08-15,21.44
2005-08-16,21.4
2005-08-17,21.25
2005-08-18,21.21
2005-08-19,21.15
2005-08-20,21.06
2005-08-21,20.94
2005-08-22,21.05
2005-08-23,20.83
2005-08-24,11.27
2005-08-25,7.54
2005-08-26,7.51
2005-08-27,7.54
2005-08-28,7.48
2005-08-29,7.44
2005-08-30,7.48
2005-08-31,7.43
2005-09-01,7.43
2005-09-02,7.38
2005-09-03,7.3
2005-09-04,7.35
2005-09-05,7.33
2005-09-06,7.41
2005-09-07,7.33
2005-09-08,7.33
2005-09-09,7.39
2005-09-10,7.37
2005-09-11,7.38
2005-09-12,7.33
2005-09-13,7.41
2005-09-14,7.4
2005-09-15,7.31
2005-09-16,7.37
2005-09-17,7.22
2005-09-18,7.32
2005-09-19,7.33
2005-09-20,7.29
2005-09-21,7.27
2005-09-22,7.27
2005-09-23,7.21
2005-09-24,7.19
2005-09-25,7.22
2005-09-26,7.27
2005-09-27,7.27
2005-09-28,16.63
2005-09-29,20.0
2005-09-30,19.99
2005-10-01,19.73
2005-10-02,19.65
2005-10-03,19.44
2005-10-04,19.31
2005-10-05,19.56
2005-10-06,19.7
2005-10-07,19.75
2005-10-08,19.54
2005-10-09,19.37
2005-10-10,19.24
2005-10-11,19.13
2005-10-12,19.0
2005-10-13,18.91
2005-10-14,18.77
2005-10-15,18.58
2005-10-16,18.42
2005-10-17,18.3
2005-10-18,18.12
2005-10-19,17.94
2005-10-20,17.82
2005-10-21,17.73
2005-10-22,17.65
2005-10-23,17.46
2005-10-24,17.27
2005-10-25,17.11
2005-10-26,16.95
2005-10-27,16.95
2005-10-28,16.53
2005-10-29,16.55
2005-10-30,16.53
2005-10-31,16.32
2005-11-01,4.95
2005-11-02,0.0
2005-11-03,0.0
2005-11-04,0.0
2005-11-05,0.0
2005-11-06,0.0
2005-11-07,0.0
2005-11-08,0.0
2005-11-09,0.0
2005-11-10,0.0
2005-11-11,0.0
2005-11-12,0.0
2005-11-13,0.0
2005-11-14,0.0
2005-11-15,0.0
2005-11-16,0.0
2005-11-17,0.0
2005-11-18,0.0
2005-11-19,0.0
2005-11-20,0.0
2005-11-21,0.0
2005-11-22,0.0
2005-11-23,0.0
2005-11-24,0.0
2005-11-25,0.0
2005-11-26,0.0
2005-11-27,0.0
2005-11-28,0.0
2005-11-29,0.0
2005-11-30,0.0
2005-12-01,0.0
2005-12-02,0.0
2005-12-03,0.0
2005-12-04,0.0
2005-12-05,0.0
2005-12-06,0.0
2005-12-07,0.0
2005-12-08,0.0
2005-12-09,0.0
2005-12-10,0.0
2005-12-11,0.0
2005-12-12,0.0
2005-12-13,0.0
2005-12-14,0.0
2005-12-15,0.0
2005-12-16,0.0
2005-12-17,0.0
2005-12-18,0.0
2005-12-19,0.0
2005-12-20,0.0
2005-12-21,0.0
2005-12-22,0.0
2005-12-23,0.0
2005-12-24,0.0
2005-12-25,0.0
2005-12-26,0.0
2005-12-27,0.0
2005-12-28,0.0
2005-12-29,0.0
2005-12-30,0.0
2005-12-31,0.0
2006-01-01,0.0
2006-01-02,0.0
2006-01-03,0.0
2006-01-04,0.0
2006-01-05,0.0
2006-01-06,0.0
2006-01-07,0.0
2006-01-08,0.0
2006-01-09,0.0
2006-01-10,0.0
2006-01-11,0.0
2006-01-12,0.0
2006-01-13,0.0
2006-01-14,0.0
2006-01-15,0.0
2006-01-16,0.0
2006-01-17,0.0
2006-01-18,0.0
2006-01-19,0.0
2006-01-20,0.0
2006-01-21,0.0
2006-01-22,0.0
2006-01-23,0.0
2006-01-24,0.0
2006-01-25,0.0
2006-01-26,0.0
2006-01-27,0.0
2006-01-28,0.0
2006-01-29,0.0
2006-01-30,0.0
2006-01-31,0.0
2006-02-01,0.0
2006-02-02,0.0
2006-02-03,0.0
2006-02-04,0.0
2006-02-05,0.0
2006-02-06,0.0
2006-02-07,0.0
2006-02-08,0.0
2006-02-09,0.0
2006-02-10,0.0
2006-02-11,0.0
2006-02-12,0.0
2006-02-13,0.0
2006-02-14,0.0
2006-02-15,0.0
2006-02-16,0.0
2006-02-17,0.0
2006-02-18,0.0
2006-02-19,0.0
2006-02-20,0.0
2006-02-21,0.0
2006-02-22,0.0
2006-02-23,0.0
2006-02-24,0.0
2006-02-25,0.0
2006-02-26,0.0
2006-02-27,0.0
2006-02-28,0.0
2006-03-01,0.0
2006-03-02,0.0
2006-03-03,0.0
2006-03-04,0.0
2006-03-05,0.0
2006-03-06,0.0
2006-03-07,0.0
2006-03-08,0.0
2006-03-09,0.0
2006-03-10,0.0
2006-03-11,0.0
2006-03-12,0.0
2006-03-13,0.0
2006-03-14,0.0
2006-03-15,0.0
2006-03-16,0.0
2006-03-17,0.0
2006-03-18,0.0
2006-03-19,0.0
2006-03-20,0.0
2006-03-21,0.0
2006-03-22,0.0
2006-03-23,0.0
2006-03-24,0.0
2006-03-25,0.0
2006-03-26,0.0
2006-03-27,0.0
2006-03-28,0.0
2006-03-29,0.0
2006-03-30,0.0
2006-03-31,0.0
2006-04-01,0.0
2006-04-02,0.0
2006-04-03,0.0
2006-04-04,0.0
2006-04-05,0.0
2006-04-06,0.0
2006-04-07,0.0
2006-04-08,0.0
2006-04-09,0.0
2006-04-10,0.0
2006-04-11,0.0
2006-04-12,0.0
2006-04-13,0.0
2006-04-14,0.0
2006-04-15,0.0
2006-04-16,0.0
2006-04-17,6.13
2006-04-18,6.13
2006-04-19,9.41
2006-04-20,9.38
2006-04-21,9.4
2006-04-22,9.26
2006-04-23,9.18
2006-04-24,18.14
2006-04-25,22.17
2006-04-26,22.08
2006-04-27,22.02
2006-04-28,22.02
2006-04-29,22.01
2006-04-30,21.82
2006-05-01,21.83
2006-05-02,21.9
2006-05-03,21.57
2006-05-04,21.69
2006-05-05,21.85
2006-05-06,21.94
2006-05-07,22.12
2006-05-08,22.45
2006-05-09,22.68
2006-05-10,22.98
2006-05-11,23.28
2006-05-12,24.08
2006-05-13,24.88
2006-05-14,25.7
2006-05-15,26.87
2006-05-16,37.58
2006-05-17,43.62
2006-05-18,44.94
2006-05-19,46.54
2006-05-20,51.87
2006-05-21,92.73
2006-05-22,95.86
2006-05-23,95.05
2006-05-24,95.7
2006-05-25,96.2
2006-05-26,96.35
2006-05-27,95.34
2006-05-28,94.91
2006-05-29,94.62
2006-05-30,92.24
2006-05-31,88.69
2006-06-01,78.42
2006-06-02,73.87
2006-06-03,73.9
2006-06-04,75.51
2006-06-05,89.48
2006-06-06,95.33
2006-06-07,95.38
2006-06-08,94.92
2006-06-09,100.25
2006-06-10,102.43
2006-06-11,101.27
2006-06-12,96.4
2006-06-13,85.74
2006-06-14,62.88
2006-06-15,49.45
2006-06-16,48.76
2006-06-17,36.82
2006-06-18,33.56
2006-06-19,22.02
2006-06-20,17.5
2006-06-21,17.35
2006-06-22,16.29
2006-06-23,14.3
2006-06-24,13.01
2006-06-25,6.57
2006-06-26,6.55
2006-06-27,6.41
2006-06-28,6.39
2006-06-29,6.39
2006-06-30,6.4
2006-07-01,6.33
2006-07-02,6.25
2006-07-03,6.26
2006-07-04,6.27
2006-07-05,6.23
2006-07-06,6.26
2006-07-07,6.21
2006-07-08,6.14
2006-07-09,6.19
2006-07-10,6.18
2006-07-11,6.17
2006-07-12,6.13
2006-07-13,6.12
2006-07-14,6.09
2006-07-15,6.05
2006-07-16,6.03
2006-07-17,6.01
2006-07-18,6.01
2006-07-19,18.16
2006-07-20,13.64
2006-07-21,10.23
2006-07-22,10.21
2006-07-23,10.21
2006-07-24,10.26
2006-07-25,10.29
2006-07-26,10.29
2006-07-27,18.53
2006-07-28,22.12
2006-07-29,22.05
2006-07-30,21.96
2006-07-31,21.94
2006-08-01,21.85
2006-08-02,21.83
2006-08-03,21.73
2006-08-04,21.64
2006-08-05,21.51
2006-08-06,21.41
2006-08-07,21.18
2006-08-08,21.02
2006-08-09,20.84
2006-08-10,20.67
2006-08-11,20.64
2006-08-12,20.5
2006-08-13,20.37
2006-08-14,20.24
2006-08-15,20.1
2006-08-16,20.08
2006-08-17,19.97
2006-08-18,19.93
2006-08-19,19.89
2006-08-20,19.88
2006-08-21,19.74
2006-08-22,19.6
2006-08-23,10.67
2006-08-24,5.11
2006-08-25,2.1
2006-08-26,1.25
2006-08-27,1.26
2006-08-28,1.22
2006-08-29,1.18
2006-08-30,1.16
2006-08-31,1.13
2006-09-01,1.12
2006-09-02,1.1
2006-09-03,1.08
2006-09-04,1.08
2006-09-05,1.08
2006-09-06,1.06
2006-09-07,1.04
2006-09-08,1.02
2006-09-09,1.05
2006-09-10,1.01
2006-09-11,1.02
2006-09-12,1.0
2006-09-13,1.01
2006-09-14,1.04
2006-09-15,1.08
2006-09-16,1.02
2006-09-17,1.05
2006-09-18,1.06
2006-09-19,1.02
2006-09-20,1.08
2006-09-21,1.02
2006-09-22,1.04
2006-09-23,1.05
2006-09-24,1.03
2006-09-25,0.98
2006-09-26,1.0
2006-09-27,0.9400000000000001
2006-09-28,0.93
2006-09-29,0.92
2006-09-30,0.92
2006-10-01,0.92
2006-10-02,0.91
2006-10-03,0.9400000000000001
2006-10-04,0.99
2006-10-05,12.9
2006-10-06,18.57
2006-10-07,18.38
2006-10-08,18.28
2006-10-09,18.18
2006-10-10,18.17
2006-10-11,18.03
2006-10-12,17.92
2006-10-13,17.82
2006-10-14,17.69
2006-10-15,17.64
2006-10-16,17.58
2006-10-17,17.49
2006-10-18,17.45
2006-10-19,17.27
2006-10-20,17.16
2006-10-21,17.15
2006-10-22,17.1
2006-10-23,17.0
2006-10-24,16.91
2006-10-25,16.79
2006-10-26,16.66
2006-10-27,16.65
2006-10-28,16.61
2006-10-29,16.51
2006-10-30,16.44
2006-10-31,16.35
2006-11-01,16.23
2006-11-02,16.16
2006-11-03,16.07
2006-11-04,15.97
2006-11-05,15.82
2006-11-06,15.75
2006-11-07,15.6
2006-11-08,15.52
2006-11-09,4.27
2006-11-10,0.0
2006-11-11,0.0
2006-11-12,0.0
2006-11-13,0.0
2006-11-14,0.0
2006-11-15,0.0
2006-11-16,0.0
2006-11-17,0.0
2006-11-18,0.0
2006-11-19,0.0
2006-11-20,0.0
2006-11-21,0.0
2006-11-22,0.0
2006-11-23,0.0
2006-11-24,0.0
2006-11-25,0.0
2006-11-26,0.0
2006-11-27,0.0
2006-11-28,0.0
2006-11-29,0.0
2006-11-30,0.0
2006-12-01,0.0
2006-12-02,0.0
2006-12-03,0.0
2006-12-04,0.0
2006-12-05,0.0
2006-12-06,0.0
2006-12-07,0.0
2006-12-08,0.0
2006-12-09,0.0
2006-12-10,0.0
2006-12-11,0.0
2006-12-12,0.0
2006-12-13,0.0
2006-12-14,0.0
2006-12-15,0.0
2006-12-16,0.0
2006-12-17,0.0
2006-12-18,0.0
2006-12-19,0.0
2006-12-20,0.0
2006-12-21,0.0
2006-12-22,0.0
2006-12-23,0.0
2006-12-24,0.0
2006-12-25,0.0
2006-12-26,0.0
2006-12-27,0.0
2006-12-28,0.0
2006-12-29,0.0
2006-12-30,0.0
2006-12-31,0.0
2007-01-01,0.0
2007-01-02,0.0
2007-01-03,0.0
2007-01-04,0.0
2007-01-05,0.0
2007-01-06,0.0
2007-01-07,0.0
2007-01-08,0.0
2007-01-09,0.0
2007-01-10,0.0
2007-01-11,0.0
2007-01-12,0.0
2007-01-13,0.0
2007-01-14,0.0
2007-01-15,0.0
2007-01-16,0.0
2007-01-17,0.0
2007-01-18,0.0
2007-01-19,0.0
2007-01-20,0.0
2007-01-21,0.0
2007-01-22,0.0
2007-01-23,0.0
2007-01-24,0.0
2007-01-25,0.0
2007-01-26,0.0
2007-01-27,0.0
2007-01-28,0.0
2007-01-29,0.0
2007-01-30,0.0
2007-01-31,0.0
2007-02-01,0.0
2007-02-02,0.0
2007-02-03,0.0
2007-02-04,0.0
2007-02-05,0.0
2007-02-06,0.0
2007-02-07,0.0
2007-02-08,0.0
2007-02-09,0.0
2007-02-10,0.0
2007-02-11,0.0
2007-02-12,0.0
2007-02-13,0.0
2007-02-14,0.0
2007-02-15,0.0
2007-02-16,0.0
2007-02-17,0.0
2007-02-18,0.0
2007-02-19,0.0
2007-02-20,0.0
2007-02-21,0.0
2007-02-22,0.0
2007-02-23,0.0
2007-02-24,0.0
2007-02-25,0.0
2007-02-26,0.0
2007-02-27,0.0
2007-02-28,0.0
2007-03-01,0.0
2007-03-02,0.0
2007-03-03,0.0
2007-03-04,0.0
2007-03-05,0.0
2007-03-06,0.0
2007-03-07,0.0
2007-03-08,0.0
2007-03-09,0.0
2007-03-10,0.0
2007-03-11,0.0
2007-03-12,0.0
2007-03-13,0.0
2007-03-14,0.0
2007-03-15,0.0
2007-03-16,0.0
2007-03-17,0.0
2007-03-18,0.0
2007-03-19,0.0
2007-03-20,0.0
2007-03-21,0.0
2007-03-22,0.0
2007-03-23,0.0
2007-03-24,0.0
2007-03-25,0.0
2007-03-26,0.0
2007-03-27,0.0
2007-03-28,0.0
2007-03-29,0.0
2007-03-30,0.0
2007-03-31,0.0
2007-04-01,0.0
2007-04-02,0.0
2007-04-03,0.0
2007-04-04,0.0
2007-04-05,0.0
2007-04-06,0.0
2007-04-07,0.0
2007-04-08,0.0
2007-04-09,0.0
2007-04-10,0.0
2007-04-11,0.0
2007-04-12,0.0
2007-04-13,0.0
2007-04-14,0.0
2007-04-15,0.0
2007-04-16,0.0
2007-04-17,0.0
2007-04-18,0.0
2007-04-19,0.0
2007-04-20,0.0
2007-04-21,0.0
2007-04-22,0.0
2007-04-23,0.0
2007-04-24,0.0
2007-04-25,0.0
2007-04-26,0.0
2007-04-27,0.0
2007-04-28,0.0
2007-04-29,0.0
2007-04-30,0.0
2007-05-01,47.0
2007-05-02,68.22
2007-05-03,71.25
2007-05-04,63.57
2007-05-05,44.13
2007-05-06,38.94
2007-05-07,32.65
2007-05-08,30.77
2007-05-09,42.77
2007-05-10,32.11
2007-05-11,56.86
2007-05-12,72.17
2007-05-13,57.33
2007-05-14,56.11
2007-05-15,53.79
2007-05-16,55.21
2007-05-17,57.45
2007-05-18,59.5
2007-05-19,60.44
2007-05-20,59.07
2007-05-21,57.77
2007-05-22,57.4
2007-05-23,48.94
2007-05-24,44.65
2007-05-25,37.41
2007-05-26,30.41
2007-05-27,31.51
2007-05-28,32.49
2007-05-29,32.35
2007-05-30,37.26
2007-05-31,25.26
2007-06-01,25.23
2007-06-02,25.22
2007-06-03,19.06
2007-06-04,15.57
2007-06-05,15.57
2007-06-06,15.63
2007-06-07,15.49
2007-06-08,15.47
2007-06-09,15.34
2007-06-10,15.33
2007-06-11,15.28
2007-06-12,15.3
2007-06-13,13.78
2007-06-14,8.53
2007-06-15,6.85
2007-06-16,6.82
2007-06-17,6.83
2007-06-18,6.8
2007-06-19,6.7
2007-06-20,6.71
2007-06-21,6.73
2007-06-22,6.7
2007-06-23,6.68
2007-06-24,6.64
2007-06-25,6.6
2007-06-26,6.62
2007-06-27,6.67
2007-06-28,6.65
2007-06-29,6.64
2007-06-30,6.64
2007-07-01,5.87
2007-07-02,5.5
2007-07-03,7.23
2007-07-04,8.97
2007-07-05,8.99
2007-07-06,8.97
2007-07-07,8.87
2007-07-08,8.85
2007-07-09,8.91
2007-07-10,8.88
2007-07-11,12.95
2007-07-12,14.7
2007-07-13,14.7
2007-07-14,14.6
2007-07-15,14.57
2007-07-16,14.53
2007-07-17,14.19
2007-07-18,14.2
2007-07-19,14.03
2007-07-20,13.99
2007-07-21,13.97
2007-07-22,13.97
2007-07-23,13.94
2007-07-24,13.89
2007-07-25,13.84
2007-07-26,13.82
2007-07-27,13.82
2007-07-28,13.75
2007-07-29,13.74
2007-07-30,13.69
2007-07-31,13.71
2007-08-01,13.56
2007-08-02,19.07
2007-08-03,21.19
2007-08-04,21.17
2007-08-05,21.09
2007-08-06,20.95
2007-08-07,20.92
2007-08-08,20.84
2007-08-09,20.57
2007-08-10,20.45
2007-08-11,20.36
2007-08-12,20.16
2007-08-13,20.17
2007-08-14,20.12
2007-08-15,20.16
2007-08-16,20.1
2007-08-17,20.06
2007-08-18,19.93
2007-08-19,19.91
2007-08-20,19.85
2007-08-21,20.16
2007-08-22,20.2
2007-08-23,10.84
2007-08-24,6.58
2007-08-25,6.54
2007-08-26,6.62
2007-08-27,6.64
2007-08-28,6.7
2007-08-29,6.72
2007-08-30,6.71
2007-08-31,6.71
2007-09-01,6.73
2007-09-02,6.71
2007-09-03,6.7
2007-09-04,6.75
2007-09-05,7.5
2007-09-06,7.08
2007-09-07,6.94
2007-09-08,6.88
2007-09-09,6.97
2007-09-10,7.2
2007-09-11,7.15
2007-09-12,7.1
2007-09-13,6.68
2007-09-14,6.57
2007-09-15,6.71
2007-09-16,6.66
2007-09-17,6.52
2007-09-18,6.45
2007-09-19,6.66
2007-09-20,5.85
2007-09-21,5.96
2007-09-22,5.92
2007-09-23,5.77
2007-09-24,6.06
2007-09-25,6.08
2007-09-26,6.67
2007-09-27,6.66
2007-09-28,6.49
2007-09-29,6.54
2007-09-30,7.05
2007-10-01,7.02
2007-10-02,6.87
2007-10-03,6.8100000000000005
2007-10-04,6.78
2007-10-05,6.75
2007-10-06,6.74
2007-10-07,6.75
2007-10-08,7.11
2007-10-09,7.06
2007-10-10,6.99
2007-10-11,7.07
2007-10-12,7.07
2007-10-13,6.95
2007-10-14,6.95
2007-10-15,6.91
2007-10-16,6.83
2007-10-17,6.86
2007-10-18,6.84
2007-10-19,5.2
2007-10-20,0.37
2007-10-21,0.79
2007-10-22,1.28
2007-10-23,0.71
2007-10-24,0.89
2007-10-25,0.88
2007-10-26,0.58
2007-10-27,0.53
2007-10-28,0.47000000000000003
2007-10-29,0.45
2007-10-30,0.62
2007-10-31,0.5
2007-11-01,0.0
2007-11-02,0.0
2007-11-03,0.0
2007-11-04,0.0
2007-11-05,0.0
2007-11-06,0.0
2007-11-07,0.0
2007-11-08,0.0
2007-11-09,0.0
2007-11-10,0.0
2007-11-11,0.0
2007-11-12,0.0
2007-11-13,0.0
2007-11-14,0.0
2007-11-15,0.0
2007-11-16,0.0
2007-11-17,0.0
2007-11-18,0.0